Location: Kott?ru
(16.6209°N, 80.6208°E)
Time: 19:10:48
(UTC+00:00)

Max Valier Satellite - Visible Passes

Search period start: 30 May 2024 00:00
Search period end: 09 June 2024 00:00
Orbit: 314 x 321 km, 97.1° (Epoch: 30 May)

Date Brightness Start Highest point End Pass type
(mag) Time Alt. Az. Time Alt. Az. Time Alt. Az.
30 May ? 14:12:36 28° ENE 14:12:36 28° ENE 14:14:39 10° NNE visible
31 May ? 14:27:20 51° NNE 14:27:20 51° NNE 14:29:27 10° N visible
01 Jun ? 14:41:38 39° NW 14:41:38 39° NW 14:43:32 10° NNW visible
02 Jun ? 14:55:29 21° WNW 14:55:29 21° WNW 14:56:54 10° NW visible
03 Jun ? 15:08:53 12° WNW 15:08:53 12° WNW 15:09:23 10° WNW visible
04 Jun ? 13:51:02 10° ENE 13:51:02 10° ENE 13:51:31 10° ENE visible
05 Jun ? 14:03:34 17° ENE 14:03:34 17° ENE 14:05:10 10° NNE visible
06 Jun ? 14:15:39 29° ENE 14:15:39 29° ENE 14:17:32 10° NNE visible
07 Jun ? 14:27:16 45° NNE 14:27:16 45° NNE 14:29:13 10° N visible
08 Jun ? 14:38:28 42° NNW 14:38:28 42° NNW 14:40:16 10° NNW visible
